Time,TemperatureF,DewpointF,PressureIn,WindDirection,WindDirectionDegrees,WindSpeedMPH,WindSpeedGustMPH,Humidity,HourlyPrecipIn,Conditions,Clouds,dailyrainin,SoftwareType,DateUTC
2013-02-13 00:00:00,28.0,24.4,29.97,SW,231,4.0,5.0,86,0.00,,,0.00,meteohub,2013-02-13 05:00:00,
2013-02-13 00:01:00,28.0,24.4,29.97,WSW,242,3.0,5.0,86,0.00,,,0.00,meteohub,2013-02-13 05:01:00,
2013-02-13 00:06:00,28.0,24.4,29.97,WSW,250,3.0,5.0,86,0.00,,,0.00,meteohub,2013-02-13 05:06:00,
2013-02-13 00:11:00,28.0,24.4,29.97,SW,226,3.0,5.0,86,0.00,,,0.00,meteohub,2013-02-13 05:11:00,
2013-02-13 00:16:00,28.0,24.6,29.97,SW,224,2.0,5.0,87,0.00,,,0.00,meteohub,2013-02-13 05:16:00,
2013-02-13 00:21:00,28.0,24.6,29.97,WSW,238,2.0,6.0,87,0.00,,,0.00,meteohub,2013-02-13 05:21:00,
2013-02-13 00:26:00,28.0,24.6,29.97,SW,231,5.0,6.0,87,0.00,,,0.00,meteohub,2013-02-13 05:26:00,
2013-02-13 00:31:00,28.0,24.6,29.96,SW,232,3.0,6.0,87,0.00,,,0.00,meteohub,2013-02-13 05:31:00,
2013-02-13 00:36:00,28.0,24.6,29.97,WSW,256,3.0,5.0,87,0.00,,,0.00,meteohub,2013-02-13 05:36:00,
2013-02-13 00:41:00,28.0,24.6,29.97,SW,224,2.0,5.0,87,0.00,,,0.00,meteohub,2013-02-13 05:41:00,
2013-02-13 00:46:00,28.0,24.6,29.97,WSW,245,4.0,5.0,87,0.00,,,0.00,meteohub,2013-02-13 05:46:00,
2013-02-13 00:51:00,28.0,24.6,29.97,WSW,250,4.0,5.0,87,0.00,,,0.00,meteohub,2013-02-13 05:51:00,
2013-02-13 00:56:00,28.0,24.6,29.96,WSW,250,2.0,5.0,87,0.00,,,0.00,meteohub,2013-02-13 05:56:00,
2013-02-13 01:01:00,28.0,24.6,29.96,SW,233,2.0,5.0,87,0.00,,,0.00,meteohub,2013-02-13 06:01:00,
2013-02-13 01:06:00,28.2,24.8,29.96,WSW,248,2.0,5.0,87,0.00,,,0.00,meteohub,2013-02-13 06:06:00,
2013-02-13 01:11:00,28.2,24.8,29.96,SW,233,1.0,5.0,87,0.00,,,0.00,meteohub,2013-02-13 06:11:00,
2013-02-13 01:16:00,28.0,24.6,29.96,West,263,2.0,5.0,87,0.00,,,0.00,meteohub,2013-02-13 06:16:00,
2013-02-13 01:21:00,28.0,24.6,29.96,WSW,250,2.0,5.0,87,0.00,,,0.00,meteohub,2013-02-13 06:21:00,
2013-02-13 01:26:00,28.0,24.6,29.95,WSW,248,3.0,4.0,87,0.00,,,0.00,meteohub,2013-02-13 06:26:00,
2013-02-13 01:32:00,28.0,24.6,29.95,SW,231,2.0,4.0,87,0.00,,,0.00,meteohub,2013-02-13 06:32:00,
2013-02-13 01:37:00,28.0,24.6,29.95,SW,232,3.0,4.0,87,0.00,,,0.00,meteohub,2013-02-13 06:37:00,
2013-02-13 01:42:00,28.0,24.6,29.95,SW,235,4.0,4.0,87,0.00,,,0.00,meteohub,2013-02-13 06:42:00,
2013-02-13 01:47:00,28.0,24.6,29.95,SSW,211,5.0,6.0,87,0.00,,,0.00,meteohub,2013-02-13 06:47:00,
2013-02-13 01:52:00,28.0,24.6,29.95,WSW,239,2.0,6.0,87,0.00,,,0.00,meteohub,2013-02-13 06:52:00,
2013-02-13 01:57:00,28.0,24.6,29.95,SW,226,3.0,6.0,87,0.00,,,0.00,meteohub,2013-02-13 06:57:00,
2013-02-13 02:02:00,28.0,24.6,29.95,WSW,245,4.0,6.0,87,0.00,,,0.00,meteohub,2013-02-13 07:02:00,
2013-02-13 02:07:00,28.0,24.4,29.95,WSW,256,4.0,6.0,86,0.00,,,0.00,meteohub,2013-02-13 07:07:00,
2013-02-13 02:12:00,28.0,24.4,29.95,SW,218,5.0,6.0,86,0.00,,,0.00,meteohub,2013-02-13 07:12:00,
2013-02-13 02:17:00,28.0,24.4,29.95,WSW,248,3.0,6.0,86,0.00,,,0.00,meteohub,2013-02-13 07:17:00,
2013-02-13 02:22:00,28.0,24.4,29.95,WSW,242,3.0,7.0,86,0.00,,,0.00,meteohub,2013-02-13 07:22:00,
2013-02-13 02:27:00,28.0,24.4,29.95,WSW,252,4.0,7.0,86,0.00,,,0.00,meteohub,2013-02-13 07:27:00,
2013-02-13 02:32:00,28.0,24.4,29.95,West,264,4.0,6.0,86,0.00,,,0.00,meteohub,2013-02-13 07:32:00,
2013-02-13 02:37:00,28.0,24.4,29.95,West,262,5.0,6.0,86,0.00,,,0.00,meteohub,2013-02-13 07:37:00,
2013-02-13 02:42:00,28.2,24.6,29.95,WSW,245,3.0,7.0,86,0.00,,,0.00,meteohub,2013-02-13 07:42:00,
2013-02-13 02:47:00,28.0,24.4,29.95,WSW,245,3.0,7.0,86,0.00,,,0.00,meteohub,2013-02-13 07:47:00,
2013-02-13 02:53:00,28.0,24.4,29.94,WSW,239,4.0,6.0,86,0.00,,,0.00,meteohub,2013-02-13 07:53:00,
2013-02-13 02:58:00,28.0,24.4,29.94,SW,214,2.0,6.0,86,0.00,,,0.00,meteohub,2013-02-13 07:58:00,
2013-02-13 03:03:00,28.0,24.4,29.94,SW,226,3.0,6.0,86,0.00,,,0.00,meteohub,2013-02-13 08:03:00,
2013-02-13 03:08:00,28.0,24.4,29.94,SW,236,2.0,6.0,86,0.00,,,0.00,meteohub,2013-02-13 08:08:00,
2013-02-13 03:13:00,27.9,24.3,29.94,SW,226,1.0,5.0,86,0.00,,,0.00,meteohub,2013-02-13 08:13:00,
2013-02-13 03:18:00,27.7,24.1,29.94,SSW,208,1.0,5.0,86,0.00,,,0.00,meteohub,2013-02-13 08:18:00,
2013-02-13 03:23:00,27.7,24.3,29.94,SW,214,1.0,4.0,87,0.00,,,0.00,meteohub,2013-02-13 08:23:00,
2013-02-13 03:28:00,27.5,24.1,29.93,South,172,3.0,4.0,87,0.00,,,0.00,meteohub,2013-02-13 08:28:00,
2013-02-13 03:33:00,27.5,24.1,29.93,SSE,163,4.0,4.0,87,0.00,,,0.00,meteohub,2013-02-13 08:33:00,
2013-02-13 03:38:00,27.3,23.9,29.93,SSE,163,3.0,4.0,87,0.00,,,0.00,meteohub,2013-02-13 08:38:00,
2013-02-13 03:43:00,27.3,23.9,29.93,South,172,4.0,5.0,87,0.00,,,0.00,meteohub,2013-02-13 08:43:00,
2013-02-13 03:48:00,27.3,23.9,29.92,SSE,147,2.0,5.0,87,0.00,,,0.00,meteohub,2013-02-13 08:48:00,
2013-02-13 03:53:00,27.3,23.9,29.92,SSE,149,4.0,5.0,87,0.00,,,0.00,meteohub,2013-02-13 08:53:00,
2013-02-13 03:58:00,27.1,23.7,29.92,SSE,158,4.0,5.0,87,0.00,,,0.00,meteohub,2013-02-13 08:58:00,
2013-02-13 04:03:00,27.1,23.7,29.91,SSE,153,4.0,7.0,87,0.00,,,0.00,meteohub,2013-02-13 09:03:00,
2013-02-13 04:08:00,27.3,23.9,29.91,SSE,158,4.0,7.0,87,0.00,,,0.00,meteohub,2013-02-13 09:08:00,
2013-02-13 04:13:00,27.1,23.7,29.91,SSE,152,4.0,7.0,87,0.00,,,0.00,meteohub,2013-02-13 09:13:00,
2013-02-13 04:19:00,27.1,23.7,29.91,SE,143,5.0,7.0,87,0.00,,,0.00,meteohub,2013-02-13 09:19:00,
2013-02-13 04:24:00,27.0,23.9,29.91,SSE,149,5.0,5.0,88,0.00,,,0.00,meteohub,2013-02-13 09:24:00,
2013-02-13 04:29:00,27.0,23.9,29.91,SE,141,5.0,5.0,88,0.00,,,0.00,meteohub,2013-02-13 09:29:00,
2013-02-13 04:34:00,26.8,23.7,29.91,SSE,153,6.0,6.0,88,0.00,,,0.00,meteohub,2013-02-13 09:34:00,
2013-02-13 04:39:00,26.6,23.5,29.91,SSE,152,5.0,6.0,88,0.00,,,0.00,meteohub,2013-02-13 09:39:00,
2013-02-13 04:44:00,26.2,23.2,29.91,SE,136,4.0,6.0,88,0.00,,,0.00,meteohub,2013-02-13 09:44:00,
2013-02-13 04:49:00,26.1,23.0,29.90,SE,146,5.0,6.0,88,0.00,,,0.00,meteohub,2013-02-13 09:49:00,
2013-02-13 04:54:00,25.9,23.0,29.90,SE,130,3.0,6.0,89,0.00,,,0.00,meteohub,2013-02-13 09:54:00,
2013-02-13 04:59:00,25.7,23.0,29.90,SE,140,5.0,6.0,89,0.00,,,0.00,meteohub,2013-02-13 09:59:00,
2013-02-13 05:04:00,25.7,23.0,29.90,SE,134,6.0,6.0,89,0.00,,,0.00,meteohub,2013-02-13 10:04:00,
2013-02-13 05:09:00,25.5,22.8,29.90,SSE,147,4.0,6.0,89,0.00,,,0.00,meteohub,2013-02-13 10:09:00,
2013-02-13 05:14:00,25.3,22.6,29.90,SE,146,5.0,7.0,89,0.00,,,0.00,meteohub,2013-02-13 10:14:00,
2013-02-13 05:19:00,25.2,22.6,29.89,SSE,147,5.0,7.0,90,0.00,,,0.00,meteohub,2013-02-13 10:19:00,
2013-02-13 05:24:00,25.0,22.5,29.89,SE,141,3.0,7.0,90,0.00,,,0.00,meteohub,2013-02-13 10:24:00,
2013-02-13 05:29:00,24.6,22.1,29.89,SSE,147,3.0,7.0,90,0.00,,,0.00,meteohub,2013-02-13 10:29:00,
2013-02-13 05:34:00,24.4,21.9,29.89,SE,140,5.0,7.0,90,0.00,,,0.00,meteohub,2013-02-13 10:34:00,
2013-02-13 05:39:00,24.4,22.3,29.88,SSE,148,5.0,7.0,91,0.00,,,0.00,meteohub,2013-02-13 10:39:00,
2013-02-13 05:45:00,24.3,22.1,29.88,SE,141,6.0,7.0,91,0.00,,,0.00,meteohub,2013-02-13 10:45:00,
2013-02-13 05:50:00,24.3,22.1,29.89,SE,143,4.0,8.0,91,0.00,,,0.00,meteohub,2013-02-13 10:50:00,
2013-02-13 05:55:00,24.1,21.9,29.89,SE,136,3.0,8.0,91,0.00,,,0.00,meteohub,2013-02-13 10:55:00,
2013-02-13 06:00:00,24.1,21.9,29.89,SSE,155,3.0,8.0,91,0.00,,,0.00,meteohub,2013-02-13 11:00:00,
2013-02-13 06:05:00,23.9,21.7,29.88,South,188,4.0,8.0,91,0.00,,,0.00,meteohub,2013-02-13 11:05:00,
2013-02-13 06:10:00,24.1,21.9,29.89,SSE,155,2.0,8.0,91,0.00,,,0.00,meteohub,2013-02-13 11:10:00,
2013-02-13 06:15:00,24.1,21.9,29.88,South,172,4.0,7.0,91,0.00,,,0.00,meteohub,2013-02-13 11:15:00,
2013-02-13 06:20:00,24.3,22.3,29.88,SSE,155,5.0,7.0,92,0.00,,,0.00,meteohub,2013-02-13 11:20:00,
2013-02-13 06:25:00,24.4,22.3,29.88,SSE,155,7.0,7.0,91,0.00,,,0.00,meteohub,2013-02-13 11:25:00,
2013-02-13 06:30:00,24.6,22.5,29.88,South,173,7.0,7.0,91,0.00,,,0.00,meteohub,2013-02-13 11:30:00,
2013-02-13 06:35:00,24.6,22.5,29.88,South,188,7.0,9.0,91,0.00,,,0.00,meteohub,2013-02-13 11:35:00,
2013-02-13 06:40:00,24.6,22.5,29.88,SSW,195,3.0,9.0,91,0.00,,,0.00,meteohub,2013-02-13 11:40:00,
2013-02-13 06:45:00,24.6,22.5,29.88,SSW,212,5.0,9.0,91,0.00,,,0.00,meteohub,2013-02-13 11:45:00,
2013-02-13 06:50:00,24.6,22.5,29.88,SE,136,4.0,9.0,91,0.00,,,0.00,meteohub,2013-02-13 11:50:00,
2013-02-13 06:55:00,24.6,22.5,29.88,SSW,203,4.0,9.0,91,0.00,,,0.00,meteohub,2013-02-13 11:55:00,
2013-02-13 07:00:00,24.8,22.5,29.88,South,169,3.0,7.0,91,0.00,,,0.00,meteohub,2013-02-13 12:00:00,
2013-02-13 07:06:00,24.8,22.5,29.88,SSE,149,4.0,7.0,91,0.00,,,0.00,meteohub,2013-02-13 12:06:00,
2013-02-13 07:11:00,25.0,22.6,29.88,South,186,5.0,7.0,91,0.00,,,0.00,meteohub,2013-02-13 12:11:00,
2013-02-13 07:16:00,25.0,22.6,29.87,SSE,147,5.0,7.0,91,0.00,,,0.00,meteohub,2013-02-13 12:16:00,
2013-02-13 07:21:00,25.2,22.8,29.87,South,177,7.0,7.0,91,0.00,,,0.00,meteohub,2013-02-13 12:21:00,
2013-02-13 07:26:00,25.2,22.8,29.87,SSE,160,6.0,7.0,91,0.00,,,0.00,meteohub,2013-02-13 12:26:00,
2013-02-13 07:31:00,25.2,22.8,29.87,SSE,152,4.0,9.0,91,0.00,,,0.00,meteohub,2013-02-13 12:31:00,
2013-02-13 07:36:00,25.3,23.0,29.87,SSW,200,4.0,9.0,91,0.00,,,0.00,meteohub,2013-02-13 12:36:00,
2013-02-13 07:41:00,25.3,23.0,29.86,SE,143,5.0,9.0,91,0.00,,,0.00,meteohub,2013-02-13 12:41:00,
2013-02-13 07:46:00,25.3,23.0,29.86,SSE,149,7.0,9.0,91,0.00,,,0.00,meteohub,2013-02-13 12:46:00,
2013-02-13 07:51:00,25.3,23.0,29.86,SSE,163,5.0,9.0,91,0.00,,,0.00,meteohub,2013-02-13 12:51:00,
2013-02-13 07:56:00,25.3,23.0,29.86,SSE,155,6.0,9.0,91,0.00,,,0.00,meteohub,2013-02-13 12:56:00,
2013-02-13 08:01:00,25.3,23.0,29.86,South,176,6.0,9.0,91,0.00,,,0.00,meteohub,2013-02-13 13:01:00,
2013-02-13 08:06:00,25.3,23.0,29.86,South,186,4.0,9.0,91,0.00,,,0.00,meteohub,2013-02-13 13:06:00,
2013-02-13 08:11:00,25.5,23.2,29.86,South,172,7.0,9.0,91,0.00,,,0.00,meteohub,2013-02-13 13:11:00,
2013-02-13 08:16:00,25.5,23.2,29.86,South,174,6.0,9.0,91,0.00,,,0.00,meteohub,2013-02-13 13:16:00,
2013-02-13 08:21:00,25.5,23.0,29.86,SSE,155,6.0,10.0,90,0.00,,,0.00,meteohub,2013-02-13 13:21:00,
2013-02-13 08:26:00,25.5,23.0,29.86,SSW,197,7.0,10.0,90,0.00,,,0.00,meteohub,2013-02-13 13:26:00,
2013-02-13 08:32:00,25.5,23.0,29.86,South,181,6.0,10.0,90,0.00,,,0.00,meteohub,2013-02-13 13:32:00,
2013-02-13 08:37:00,25.5,23.0,29.86,South,180,5.0,10.0,90,0.00,,,0.00,meteohub,2013-02-13 13:37:00,
2013-02-13 08:42:00,25.5,23.0,29.86,South,181,8.0,10.0,90,0.00,,,0.00,meteohub,2013-02-13 13:42:00,
2013-02-13 08:47:00,25.5,23.0,29.86,South,170,6.0,10.0,90,0.00,,,0.00,meteohub,2013-02-13 13:47:00,
2013-02-13 08:52:00,25.5,23.0,29.86,South,172,6.0,10.0,90,0.00,,,0.00,meteohub,2013-02-13 13:52:00,
2013-02-13 08:57:00,25.5,23.0,29.86,SSE,163,5.0,10.0,90,0.00,,,0.00,meteohub,2013-02-13 13:57:00,
2013-02-13 09:02:00,25.9,23.4,29.86,South,186,7.0,9.0,90,0.00,,,0.00,meteohub,2013-02-13 14:02:00,
2013-02-13 09:07:00,26.1,23.5,29.86,South,184,6.0,9.0,90,0.00,,,0.00,meteohub,2013-02-13 14:07:00,
2013-02-13 09:12:00,26.4,23.5,29.86,South,186,6.0,9.0,89,0.00,,,0.00,meteohub,2013-02-13 14:12:00,
2013-02-13 09:17:00,26.6,23.5,29.86,SSW,203,5.0,9.0,88,0.00,,,0.00,meteohub,2013-02-13 14:17:00,
2013-02-13 09:22:00,26.8,23.7,29.86,South,179,8.0,10.0,88,0.00,,,0.00,meteohub,2013-02-13 14:22:00,
2013-02-13 09:27:00,26.8,23.4,29.86,SSW,197,5.0,10.0,87,0.00,,,0.00,meteohub,2013-02-13 14:27:00,
2013-02-13 09:32:00,26.8,23.7,29.86,SSE,165,3.0,10.0,88,0.00,,,0.00,meteohub,2013-02-13 14:32:00,
2013-02-13 09:37:00,26.8,23.7,29.86,South,169,7.0,10.0,88,0.00,,,0.00,meteohub,2013-02-13 14:37:00,
2013-02-13 09:42:00,26.8,23.4,29.85,South,187,9.0,9.0,87,0.00,,,0.00,meteohub,2013-02-13 14:42:00,
2013-02-13 09:47:00,26.6,23.2,29.85,South,191,7.0,9.0,87,0.00,,,0.00,meteohub,2013-02-13 14:47:00,
2013-02-13 09:53:00,26.8,23.7,29.85,SSE,166,8.0,9.0,88,0.00,,,0.00,meteohub,2013-02-13 14:53:00,
2013-02-13 09:58:00,27.1,23.7,29.85,South,188,7.0,9.0,87,0.00,,,0.00,meteohub,2013-02-13 14:58:00,
2013-02-13 10:03:00,27.3,23.7,29.85,South,181,8.0,10.0,86,0.00,,,0.00,meteohub,2013-02-13 15:03:00,
2013-02-13 10:08:00,27.5,23.9,29.85,SSW,197,7.0,10.0,86,0.00,,,0.00,meteohub,2013-02-13 15:08:00,
2013-02-13 10:13:00,27.9,23.9,29.85,SSW,194,12.0,12.0,85,0.00,,,0.00,meteohub,2013-02-13 15:13:00,
2013-02-13 10:18:00,27.7,23.7,29.85,SW,219,9.0,10.0,85,0.00,,,0.00,meteohub,2013-02-13 15:18:00,
2013-02-13 10:23:00,28.0,24.1,29.85,SSW,208,7.0,13.0,85,0.00,,,0.00,meteohub,2013-02-13 15:23:00,
2013-02-13 10:28:00,28.2,24.3,29.85,South,169,5.0,13.0,85,0.00,,,0.00,meteohub,2013-02-13 15:28:00,
2013-02-13 10:33:00,28.6,24.4,29.85,SSW,195,6.0,13.0,84,0.00,,,0.00,meteohub,2013-02-13 15:33:00,
2013-02-13 10:38:00,28.6,24.4,29.86,SSW,208,7.0,13.0,84,0.00,,,0.00,meteohub,2013-02-13 15:38:00,
2013-02-13 10:43:00,28.6,24.4,29.85,SW,232,6.0,10.0,84,0.00,,,0.00,meteohub,2013-02-13 15:43:00,
2013-02-13 10:48:00,28.8,24.6,29.85,South,184,11.0,11.0,84,0.00,,,0.00,meteohub,2013-02-13 15:48:00,
2013-02-13 10:53:00,28.8,24.6,29.86,SSW,197,9.0,10.0,84,0.00,,,0.00,meteohub,2013-02-13 15:53:00,
2013-02-13 10:58:00,28.9,24.8,29.86,SSW,202,8.0,12.0,84,0.00,,,0.00,meteohub,2013-02-13 15:58:00,
2013-02-13 11:03:00,29.1,24.6,29.86,South,179,5.0,12.0,83,0.00,,,0.00,meteohub,2013-02-13 16:03:00,
2013-02-13 11:09:00,29.5,25.0,29.85,SSW,197,4.0,12.0,83,0.00,,,0.00,meteohub,2013-02-13 16:09:00,
2013-02-13 11:14:00,29.7,24.8,29.85,SSW,200,7.0,12.0,82,0.00,,,0.00,meteohub,2013-02-13 16:14:00,
2013-02-13 11:19:00,29.8,25.3,29.85,SSW,200,8.0,12.0,83,0.00,,,0.00,meteohub,2013-02-13 16:19:00,
2013-02-13 11:24:00,30.0,25.2,29.85,SSW,197,7.0,10.0,82,0.00,,,0.00,meteohub,2013-02-13 16:24:00,
2013-02-13 11:29:00,30.2,25.3,29.85,SSW,192,6.0,10.0,82,0.00,,,0.00,meteohub,2013-02-13 16:29:00,
2013-02-13 11:34:00,30.6,25.3,29.85,SSW,194,8.0,10.0,81,0.00,,,0.00,meteohub,2013-02-13 16:34:00,
2013-02-13 11:39:00,30.6,25.3,29.85,SSW,200,5.0,11.0,81,0.00,,,0.00,meteohub,2013-02-13 16:39:00,
2013-02-13 11:44:00,30.7,25.5,29.85,SSW,203,9.0,11.0,81,0.00,,,0.00,meteohub,2013-02-13 16:44:00,
2013-02-13 11:49:00,30.7,25.3,29.85,SSW,207,6.0,10.0,80,0.00,,,0.00,meteohub,2013-02-13 16:49:00,
2013-02-13 11:54:00,30.9,25.5,29.84,South,187,6.0,10.0,80,0.00,,,0.00,meteohub,2013-02-13 16:54:00,
2013-02-13 11:59:00,31.1,25.7,29.85,SSW,200,4.0,12.0,80,0.00,,,0.00,meteohub,2013-02-13 16:59:00,
2013-02-13 12:04:00,31.5,26.1,29.84,SSW,210,5.0,12.0,80,0.00,,,0.00,meteohub,2013-02-13 17:04:00,
2013-02-13 12:09:00,32.0,26.6,29.84,SSW,208,5.0,11.0,80,0.00,,,0.00,meteohub,2013-02-13 17:09:00,
2013-02-13 12:14:00,32.4,26.6,29.84,SW,217,5.0,11.0,79,0.00,,,0.00,meteohub,2013-02-13 17:14:00,
2013-02-13 12:19:00,32.5,26.4,29.83,SW,216,7.0,11.0,78,0.00,,,0.00,meteohub,2013-02-13 17:19:00,
2013-02-13 12:25:00,32.7,26.6,29.83,SW,232,5.0,10.0,78,0.00,,,0.00,meteohub,2013-02-13 17:25:00,
2013-02-13 12:30:00,32.7,26.2,29.83,South,191,9.0,10.0,77,0.00,,,0.00,meteohub,2013-02-13 17:30:00,
2013-02-13 12:35:00,32.9,26.4,29.83,SSW,203,8.0,10.0,77,0.00,,,0.00,meteohub,2013-02-13 17:35:00,
2013-02-13 12:40:00,33.1,27.0,29.82,South,172,10.0,12.0,78,0.00,,,0.00,meteohub,2013-02-13 17:40:00,
2013-02-13 12:45:00,33.4,27.0,29.82,South,183,6.0,12.0,77,0.00,,,0.00,meteohub,2013-02-13 17:45:00,
2013-02-13 12:50:00,33.6,26.8,29.82,SSW,208,5.0,12.0,76,0.00,,,0.00,meteohub,2013-02-13 17:50:00,
2013-02-13 12:55:00,33.8,27.0,29.81,SSW,210,8.0,11.0,76,0.00,,,0.00,meteohub,2013-02-13 17:55:00,
2013-02-13 13:00:00,34.0,27.1,29.81,SSW,204,6.0,11.0,76,0.00,,,0.00,meteohub,2013-02-13 18:00:00,
2013-02-13 13:05:00,34.3,27.5,29.81,SSW,205,8.0,11.0,76,0.00,,,0.00,meteohub,2013-02-13 18:05:00,
2013-02-13 13:10:00,34.5,27.5,29.80,SSE,155,7.0,13.0,75,0.00,,,0.00,meteohub,2013-02-13 18:10:00,
2013-02-13 13:15:00,34.5,27.5,29.80,SSW,208,6.0,13.0,75,0.00,,,0.00,meteohub,2013-02-13 18:15:00,
2013-02-13 13:20:00,34.9,27.7,29.80,South,183,9.0,13.0,75,0.00,,,0.00,meteohub,2013-02-13 18:20:00,
2013-02-13 13:25:00,35.2,28.0,29.79,SSE,148,6.0,13.0,75,0.00,,,0.00,meteohub,2013-02-13 18:25:00,
2013-02-13 13:30:00,35.4,28.2,29.79,SW,231,7.0,16.0,75,0.00,,,0.00,meteohub,2013-02-13 18:30:00,
2013-02-13 13:35:00,35.8,28.4,29.79,SSE,149,7.0,16.0,74,0.00,,,0.00,meteohub,2013-02-13 18:35:00,
2013-02-13 13:40:00,35.8,28.4,29.79,South,174,9.0,16.0,74,0.00,,,0.00,meteohub,2013-02-13 18:40:00,
2013-02-13 13:45:00,36.0,28.2,29.78,SSE,162,6.0,16.0,73,0.00,,,0.00,meteohub,2013-02-13 18:45:00,
2013-02-13 13:50:00,36.1,28.4,29.78,SSW,200,9.0,16.0,73,0.00,,,0.00,meteohub,2013-02-13 18:50:00,
2013-02-13 13:55:00,36.3,28.6,29.78,SSW,201,6.0,14.0,73,0.00,,,0.00,meteohub,2013-02-13 18:55:00,
2013-02-13 14:00:00,36.3,28.8,29.78,SSW,211,4.0,14.0,74,0.00,,,0.00,meteohub,2013-02-13 19:00:00,
2013-02-13 14:06:00,36.7,28.8,29.78,SW,223,11.0,14.0,73,0.00,,,0.00,meteohub,2013-02-13 19:06:00,
2013-02-13 14:11:00,36.9,28.9,29.78,SSW,211,9.0,13.0,73,0.00,,,0.00,meteohub,2013-02-13 19:11:00,
2013-02-13 14:16:00,37.0,28.9,29.78,SSW,208,6.0,13.0,72,0.00,,,0.00,meteohub,2013-02-13 19:16:00,
2013-02-13 14:21:00,37.0,28.9,29.77,SSW,211,11.0,14.0,72,0.00,,,0.00,meteohub,2013-02-13 19:21:00,
2013-02-13 14:26:00,37.0,28.9,29.77,SSW,208,10.0,14.0,72,0.00,,,0.00,meteohub,2013-02-13 19:26:00,
2013-02-13 14:31:00,37.2,28.8,29.77,SSW,212,8.0,14.0,71,0.00,,,0.00,meteohub,2013-02-13 19:31:00,
2013-02-13 14:36:00,37.4,28.9,29.77,South,181,4.0,14.0,71,0.00,,,0.00,meteohub,2013-02-13 19:36:00,
2013-02-13 14:41:00,37.8,29.1,29.76,SSW,207,7.0,14.0,71,0.00,,,0.00,meteohub,2013-02-13 19:41:00,
2013-02-13 14:46:00,37.9,29.1,29.77,South,186,7.0,14.0,70,0.00,,,0.00,meteohub,2013-02-13 19:46:00,
2013-02-13 14:51:00,37.9,29.1,29.76,SW,226,6.0,12.0,70,0.00,,,0.00,meteohub,2013-02-13 19:51:00,
2013-02-13 14:56:00,38.1,29.1,29.76,SW,219,8.0,12.0,70,0.00,,,0.00,meteohub,2013-02-13 19:56:00,
2013-02-13 15:01:00,38.3,29.3,29.76,WSW,239,4.0,10.0,70,0.00,,,0.00,meteohub,2013-02-13 20:01:00,
2013-02-13 15:06:00,38.7,29.3,29.76,SW,229,4.0,10.0,69,0.00,,,0.00,meteohub,2013-02-13 20:06:00,
2013-02-13 15:11:00,38.8,29.5,29.76,WSW,256,5.0,10.0,69,0.00,,,0.00,meteohub,2013-02-13 20:11:00,
2013-02-13 15:16:00,39.0,29.3,29.76,SW,232,2.0,9.0,68,0.00,,,0.00,meteohub,2013-02-13 20:16:00,
2013-02-13 15:21:00,39.4,29.3,29.76,SSW,208,2.0,9.0,67,0.00,,,0.00,meteohub,2013-02-13 20:21:00,
2013-02-13 15:26:00,39.4,29.3,29.76,SSW,194,2.0,9.0,67,0.00,,,0.00,meteohub,2013-02-13 20:26:00,
2013-02-13 15:31:00,39.6,29.5,29.76,WSW,248,3.0,9.0,67,0.00,,,0.00,meteohub,2013-02-13 20:31:00,
2013-02-13 15:36:00,39.9,29.5,29.76,WNW,283,3.0,9.0,66,0.00,,,0.00,meteohub,2013-02-13 20:36:00,
2013-02-13 15:41:00,39.7,29.7,29.76,West,281,3.0,7.0,67,0.00,,,0.00,meteohub,2013-02-13 20:41:00,
2013-02-13 15:46:00,39.7,29.7,29.76,West,264,2.0,7.0,67,0.00,,,0.00,meteohub,2013-02-13 20:46:00,
2013-02-13 15:51:00,39.6,29.1,29.76,WNW,293,6.0,7.0,66,0.00,,,0.00,meteohub,2013-02-13 20:51:00,
2013-02-13 15:56:00,39.0,29.3,29.76,WNW,298,3.0,8.0,68,0.00,,,0.00,meteohub,2013-02-13 20:56:00,
2013-02-13 16:01:00,38.7,29.3,29.76,WNW,290,5.0,8.0,69,0.00,,,0.00,meteohub,2013-02-13 21:01:00,
2013-02-13 16:07:00,38.5,29.1,29.76,WNW,290,3.0,8.0,69,0.00,,,0.00,meteohub,2013-02-13 21:07:00,
2013-02-13 16:12:00,38.5,29.5,29.76,WNW,295,4.0,8.0,70,0.00,,,0.00,meteohub,2013-02-13 21:12:00,
2013-02-13 16:17:00,38.5,29.8,29.76,WNW,287,2.0,8.0,71,0.00,,,0.00,meteohub,2013-02-13 21:17:00,
2013-02-13 16:22:00,38.5,29.5,29.76,WNW,293,5.0,8.0,70,0.00,,,0.00,meteohub,2013-02-13 21:22:00,
2013-02-13 16:27:00,38.5,29.8,29.76,WNW,303,8.0,8.0,71,0.00,,,0.00,meteohub,2013-02-13 21:27:00,
2013-02-13 16:32:00,38.3,29.7,29.76,WNW,298,6.0,8.0,71,0.00,,,0.00,meteohub,2013-02-13 21:32:00,
2013-02-13 16:37:00,38.1,29.8,29.76,WNW,301,5.0,9.0,72,0.00,,,0.00,meteohub,2013-02-13 21:37:00,
2013-02-13 16:42:00,38.1,29.8,29.76,NW,304,6.0,9.0,72,0.00,,,0.00,meteohub,2013-02-13 21:42:00,
2013-02-13 16:47:00,38.1,29.8,29.76,WNW,298,3.0,9.0,72,0.00,,,0.00,meteohub,2013-02-13 21:47:00,
2013-02-13 16:52:00,38.1,30.2,29.75,WNW,298,5.0,9.0,73,0.00,,,0.00,meteohub,2013-02-13 21:52:00,
2013-02-13 16:57:00,37.9,30.0,29.75,West,280,2.0,9.0,73,0.00,,,0.00,meteohub,2013-02-13 21:57:00,
2013-02-13 17:02:00,37.8,29.8,29.76,WNW,295,3.0,7.0,73,0.00,,,0.00,meteohub,2013-02-13 22:02:00,
2013-02-13 17:08:00,37.8,29.8,29.75,WNW,301,3.0,7.0,73,0.00,,,0.00,meteohub,2013-02-13 22:08:00,
2013-02-13 17:13:00,37.8,29.8,29.76,WNW,293,3.0,7.0,73,0.00,,,0.00,meteohub,2013-02-13 22:13:00,
2013-02-13 17:18:00,37.6,29.7,29.75,WNW,290,3.0,5.0,73,0.00,,,0.00,meteohub,2013-02-13 22:18:00,
2013-02-13 17:23:00,37.4,29.1,29.76,WNW,292,3.0,5.0,72,0.00,,,0.00,meteohub,2013-02-13 22:23:00,
2013-02-13 17:28:00,37.2,29.3,29.76,West,280,3.0,5.0,73,0.00,,,0.00,meteohub,2013-02-13 22:28:00,
2013-02-13 17:33:00,37.0,29.1,29.76,WNW,293,3.0,5.0,73,0.00,,,0.00,meteohub,2013-02-13 22:33:00,
2013-02-13 17:38:00,36.9,29.3,29.76,WNW,290,3.0,5.0,74,0.00,,,0.00,meteohub,2013-02-13 22:38:00,
2013-02-13 17:43:00,36.7,29.1,29.76,WNW,290,1.0,5.0,74,0.00,,,0.00,meteohub,2013-02-13 22:43:00,
2013-02-13 17:48:00,36.7,29.1,29.76,West,281,1.0,5.0,74,0.00,,,0.00,meteohub,2013-02-13 22:48:00,
2013-02-13 17:53:00,36.5,28.9,29.76,West,281,1.0,5.0,74,0.00,,,0.00,meteohub,2013-02-13 22:53:00,
2013-02-13 17:58:00,36.3,29.1,29.76,West,281,0.0,3.0,75,0.00,,,0.00,meteohub,2013-02-13 22:58:00,
2013-02-13 18:03:00,36.1,28.9,29.76,West,281,0.0,3.0,75,0.00,,,0.00,meteohub,2013-02-13 23:03:00,
2013-02-13 18:08:00,36.0,28.8,29.76,West,281,0.0,2.0,75,0.00,,,0.00,meteohub,2013-02-13 23:08:00,
2013-02-13 18:13:00,35.4,28.6,29.77,West,281,1.0,2.0,76,0.00,,,0.00,meteohub,2013-02-13 23:13:00,
2013-02-13 18:18:00,35.2,28.8,29.77,West,281,0.0,2.0,77,0.00,,,0.00,meteohub,2013-02-13 23:18:00,
2013-02-13 18:23:00,35.2,29.1,29.77,West,280,1.0,2.0,78,0.00,,,0.00,meteohub,2013-02-13 23:23:00,
2013-02-13 18:28:00,35.2,29.1,29.77,West,280,0.0,1.0,78,0.00,,,0.00,meteohub,2013-02-13 23:28:00,
2013-02-13 18:33:00,35.1,28.9,29.77,West,280,0.0,1.0,78,0.00,,,0.00,meteohub,2013-02-13 23:33:00,
2013-02-13 18:38:00,34.9,28.8,29.77,West,280,0.0,1.0,78,0.00,,,0.00,meteohub,2013-02-13 23:38:00,
2013-02-13 18:43:00,34.3,28.6,29.77,West,280,1.0,1.0,79,0.00,,,0.00,meteohub,2013-02-13 23:43:00,
2013-02-13 18:49:00,34.3,28.6,29.77,ESE,115,1.0,1.0,79,0.00,,,0.00,meteohub,2013-02-13 23:49:00,
2013-02-13 18:54:00,34.0,28.4,29.77,ESE,115,0.0,3.0,80,0.00,,,0.00,meteohub,2013-02-13 23:54:00,
2013-02-13 18:59:00,33.4,27.9,29.77,SE,128,0.0,3.0,80,0.00,,,0.00,meteohub,2013-02-13 23:59:00,
2013-02-13 19:04:00,33.1,27.9,29.77,SE,129,0.0,3.0,81,0.00,,,0.00,meteohub,2013-02-14 00:04:00,
2013-02-13 19:09:00,32.9,28.0,29.77,SE,134,0.0,1.0,82,0.00,,,0.00,meteohub,2013-02-14 00:09:00,
2013-02-13 19:14:00,32.7,27.9,29.77,SE,134,0.0,1.0,82,0.00,,,0.00,meteohub,2013-02-14 00:14:00,
2013-02-13 19:19:00,32.4,27.9,29.77,SE,134,0.0,1.0,83,0.00,,,0.00,meteohub,2013-02-14 00:19:00,
2013-02-13 19:24:00,32.2,27.7,29.77,SE,134,0.0,1.0,83,0.00,,,0.00,meteohub,2013-02-14 00:24:00,
2013-02-13 19:29:00,31.6,27.1,29.77,SE,134,0.0,1.0,83,0.00,,,0.00,meteohub,2013-02-14 00:29:00,
2013-02-13 19:34:00,31.1,26.8,29.78,SE,134,0.0,1.0,84,0.00,,,0.00,meteohub,2013-02-14 00:34:00,
2013-02-13 19:39:00,30.7,26.8,29.78,East,95,1.0,1.0,85,0.00,,,0.00,meteohub,2013-02-14 00:39:00,
2013-02-13 19:44:00,30.9,27.5,29.78,ESE,119,2.0,2.0,87,0.00,,,0.00,meteohub,2013-02-14 00:44:00,
2013-02-13 19:49:00,31.3,27.5,29.78,SE,124,1.0,2.0,86,0.00,,,0.00,meteohub,2013-02-14 00:49:00,
2013-02-13 19:54:00,31.3,27.5,29.78,ESE,118,1.0,2.0,86,0.00,,,0.00,meteohub,2013-02-14 00:54:00,
2013-02-13 19:59:00,31.5,27.7,29.78,ESE,121,1.0,2.0,86,0.00,,,0.00,meteohub,2013-02-14 00:59:00,
2013-02-13 20:04:00,31.3,27.3,29.78,SE,129,2.0,2.0,85,0.00,,,0.00,meteohub,2013-02-14 01:04:00,
2013-02-13 20:09:00,30.9,27.0,29.78,SE,134,0.0,2.0,85,0.00,,,0.00,meteohub,2013-02-14 01:09:00,
2013-02-13 20:14:00,30.6,27.0,29.78,ESE,119,1.0,2.0,86,0.00,,,0.00,meteohub,2013-02-14 01:14:00,
2013-02-13 20:19:00,30.4,27.0,29.78,SE,129,1.0,2.0,87,0.00,,,0.00,meteohub,2013-02-14 01:19:00,
2013-02-13 20:24:00,30.0,26.6,29.78,ESE,122,1.0,2.0,87,0.00,,,0.00,meteohub,2013-02-14 01:24:00,
2013-02-13 20:29:00,29.7,26.2,29.78,ESE,109,0.0,2.0,87,0.00,,,0.00,meteohub,2013-02-14 01:29:00,
2013-02-13 20:34:00,29.5,26.1,29.78,ESE,109,0.0,2.0,87,0.00,,,0.00,meteohub,2013-02-14 01:34:00,
2013-02-13 20:39:00,29.1,26.1,29.78,ESE,103,0.0,2.0,88,0.00,,,0.00,meteohub,2013-02-14 01:39:00,
2013-02-13 20:44:00,28.8,25.7,29.78,ESE,103,0.0,2.0,88,0.00,,,0.00,meteohub,2013-02-14 01:44:00,
2013-02-13 20:49:00,28.4,25.5,29.78,ESE,103,0.0,2.0,89,0.00,,,0.00,meteohub,2013-02-14 01:49:00,
2013-02-13 20:55:00,28.6,26.1,29.78,ESE,118,1.0,2.0,90,0.00,,,0.00,meteohub,2013-02-14 01:55:00,
2013-02-13 21:00:00,28.9,26.4,29.78,ESE,110,1.0,2.0,90,0.00,,,0.00,meteohub,2013-02-14 02:00:00,
2013-02-13 21:05:00,29.3,26.8,29.78,ESE,114,1.0,2.0,90,0.00,,,0.00,meteohub,2013-02-14 02:05:00,
2013-02-13 21:10:00,29.5,26.6,29.77,ESE,113,0.0,2.0,89,0.00,,,0.00,meteohub,2013-02-14 02:10:00,
2013-02-13 21:15:00,29.3,26.4,29.78,ESE,115,0.0,2.0,89,0.00,,,0.00,meteohub,2013-02-14 02:15:00,
2013-02-13 21:20:00,29.1,26.2,29.78,East,101,1.0,2.0,89,0.00,,,0.00,meteohub,2013-02-14 02:20:00,
2013-02-13 21:25:00,28.9,26.1,29.78,East,98,1.0,2.0,89,0.00,,,0.00,meteohub,2013-02-14 02:25:00,
2013-02-13 21:30:00,28.8,25.9,29.77,East,89,1.0,2.0,89,0.00,,,0.00,meteohub,2013-02-14 02:30:00,
2013-02-13 21:35:00,28.2,25.3,29.78,ESE,119,1.0,2.0,89,0.00,,,0.00,meteohub,2013-02-14 02:35:00,
2013-02-13 21:40:00,28.2,25.7,29.78,East,96,1.0,2.0,90,0.00,,,0.00,meteohub,2013-02-14 02:40:00,
2013-02-13 21:45:00,28.0,25.5,29.78,East,98,0.0,2.0,90,0.00,,,0.00,meteohub,2013-02-14 02:45:00,
2013-02-13 21:50:00,27.9,25.3,29.78,ESE,104,0.0,2.0,90,0.00,,,0.00,meteohub,2013-02-14 02:50:00,
2013-02-13 21:55:00,28.0,25.7,29.78,SE,140,1.0,2.0,91,0.00,,,0.00,meteohub,2013-02-14 02:55:00,
2013-02-13 22:00:00,28.2,25.9,29.78,SE,129,0.0,2.0,91,0.00,,,0.00,meteohub,2013-02-14 03:00:00,
2013-02-13 22:05:00,27.9,25.3,29.77,East,87,0.0,2.0,90,0.00,,,0.00,meteohub,2013-02-14 03:05:00,
2013-02-13 22:10:00,27.5,25.2,29.77,ESE,113,0.0,2.0,91,0.00,,,0.00,meteohub,2013-02-14 03:10:00,
2013-02-13 22:16:00,27.7,25.3,29.77,ESE,113,0.0,2.0,91,0.00,,,0.00,meteohub,2013-02-14 03:16:00,
2013-02-13 22:21:00,27.7,25.3,29.77,ESE,118,1.0,2.0,91,0.00,,,0.00,meteohub,2013-02-14 03:21:00,
2013-02-13 22:26:00,28.2,26.4,29.77,ESE,121,3.0,3.0,93,0.00,,,0.00,meteohub,2013-02-14 03:26:00,
2013-02-13 22:31:00,29.7,27.7,29.77,SSE,147,3.0,5.0,92,0.00,,,0.00,meteohub,2013-02-14 03:31:00,
2013-02-13 22:36:00,30.4,28.0,29.78,SSE,152,3.0,5.0,91,0.00,,,0.00,meteohub,2013-02-14 03:36:00,
2013-02-13 22:41:00,30.6,28.0,29.78,South,183,3.0,5.0,90,0.00,,,0.00,meteohub,2013-02-14 03:41:00,
2013-02-13 22:46:00,30.9,28.4,29.78,SSE,163,4.0,5.0,90,0.00,,,0.00,meteohub,2013-02-14 03:46:00,
2013-02-13 22:51:00,31.5,28.6,29.78,SSE,166,3.0,5.0,89,0.00,,,0.00,meteohub,2013-02-14 03:51:00,
2013-02-13 22:56:00,31.6,28.6,29.77,SSE,153,4.0,6.0,88,0.00,,,0.00,meteohub,2013-02-14 03:56:00,
2013-02-13 23:01:00,31.6,28.2,29.77,South,178,5.0,6.0,87,0.00,,,0.00,meteohub,2013-02-14 04:01:00,
2013-02-13 23:06:00,31.6,28.2,29.78,SSE,165,2.0,6.0,87,0.00,,,0.00,meteohub,2013-02-14 04:06:00,
2013-02-13 23:11:00,31.6,28.2,29.78,SSW,198,6.0,6.0,87,0.00,,,0.00,meteohub,2013-02-14 04:11:00,
2013-02-13 23:16:00,31.5,28.0,29.78,SSW,200,6.0,6.0,87,0.00,,,0.00,meteohub,2013-02-14 04:16:00,
2013-02-13 23:21:00,31.3,27.9,29.78,SSE,147,4.0,7.0,87,0.00,,,0.00,meteohub,2013-02-14 04:21:00,
2013-02-13 23:26:00,31.3,27.9,29.78,South,188,4.0,7.0,87,0.00,,,0.00,meteohub,2013-02-14 04:26:00,
2013-02-13 23:31:00,31.3,28.2,29.78,SSE,167,4.0,7.0,88,0.00,,,0.00,meteohub,2013-02-14 04:31:00,
2013-02-13 23:36:00,31.3,28.2,29.78,SSE,166,5.0,7.0,88,0.00,,,0.00,meteohub,2013-02-14 04:36:00,
2013-02-13 23:41:00,31.3,28.2,29.77,SE,141,4.0,8.0,88,0.00,,,0.00,meteohub,2013-02-14 04:41:00,
2013-02-13 23:46:00,31.3,28.2,29.77,South,181,4.0,8.0,88,0.00,,,0.00,meteohub,2013-02-14 04:46:00,
2013-02-13 23:51:00,31.3,28.2,29.77,SE,144,3.0,7.0,88,0.00,,,0.00,meteohub,2013-02-14 04:51:00,
2013-02-13 23:56:00,31.3,28.2,29.77,South,191,3.0,7.0,88,0.00,,,0.00,meteohub,2013-02-14 04:56:00,